Albany, NY

5:40 PM EDT on July 24, 2017 (GMT -0400)
Albany International

Weather History for KALB - June, 2013

Change the Weather History Date:

Friday, June 28, 2013

  Actual Average Record
Temperature  
Mean Temperature 75 °F 70 °F  
Max Temperature 81 °F 81 °F 99 °F (1901)
Min Temperature 69 °F 60 °F 45 °F (1970)
Degree Days  
Heating Degree Days 0 1  
Month to date heating degree days 55 53  
Since 1 June heating degree days 55 53  
Since 1 July heating degree days 6316 6681  
Cooling Degree Days 10 6  
Month to date cooling degree days 123 105  
Year to date cooling degree days 172 135  
Since 1 June cooling degree days 123 105  
Growing Degree Days 25 (Base 50)    
Moisture  
Dew Point 67 °F    
Average Humidity 76    
Maximum Humidity 97    
Minimum Humidity 54    
Precipitation  
Precipitation 1.77 in 0.12 in 2.01 in (1892)
Month to date precipitation 8.11 3.55  
Year to date precipitation 22.85 18.33  
Sea Level Pressure  
Sea Level Pressure 29.48 in    
Wind  
Wind Speed 7 mph (ESE)    
Max Wind Speed 25 mph    
Max Gust Speed 38 mph    
Visibility 8 miles    
Events Rain , Thunderstorm    
T = Trace of Precipitation, MM = Missing Value Source: NWS Daily Summary

Daily Weather History Graph

Daily Weather History Graph

Search for Another Location

Airport or City:

Trip Planner

Search our weather history database for the weather conditions in past years. The results will help you decide how hot, cold, wet, or windy it might be!

Date:

Astronomy

Jun. 28, 2013 Rise Set
Actual Time 5:19 AM EDT 8:37 PM EDT
Civil Twilight 4:44 AM EDT 9:12 PM EDT
Nautical Twilight 3:58 AM EDT 9:57 PM EDT
Astronomical Twilight 3:03 AM EDT 10:53 PM EDT
Moon 11:55 PM EDT (6/28) 11:33 AM EDT (6/28)
Length of Visible Light 16h 28m
Length of Day
15h 18m
Waning Gibbous, 66% of the Moon is Illuminated
Jun 28
Waning Gibbous
Jun 30
Last Quarter
Jul 8
New
Jul 15
First Quarter
Jul 22
Full

Hourly Weather History & Observations

Time (EDT) Temp. Heat Index Dew Point Humidity Pressure Visibility Wind Dir Wind Speed Gust Speed Precip Events Conditions
12:16 AM 73.4 °F - 69.8 °F 88% 29.60 in 7.0 mi NE 4.6 mph - 0.01 in Rain , Thunderstorm Light Thunderstorms and Rain
12:32 AM 71.6 °F - 68.0 °F 88% 29.60 in 4.0 mi ENE 4.6 mph - 0.04 in Rain Rain
12:51 AM 71.1 °F - 68.0 °F 90% 29.57 in 4.0 mi NE 8.1 mph - 0.11 in Rain Rain
1:21 AM 71.6 °F - 68.0 °F 88% 29.56 in 2.0 mi East 10.4 mph - 0.14 in Rain Heavy Rain
1:24 AM 71.6 °F - 68.0 °F 88% 29.55 in 1.5 mi ENE 10.4 mph - 0.17 in Rain Heavy Rain
1:35 AM 69.8 °F - 68.0 °F 94% 29.53 in 3.0 mi NE 10.4 mph - 0.29 in Rain Rain
1:51 AM 70.0 °F - 68.0 °F 93% 29.50 in 3.0 mi NE 16.1 mph 21.9 mph 0.37 in Rain Heavy Rain
1:57 AM 69.8 °F - 66.2 °F 88% 29.50 in 2.5 mi ENE 16.1 mph 21.9 mph 0.04 in Rain Heavy Rain
2:20 AM 69.8 °F - 66.2 °F 88% 29.48 in 3.0 mi ENE 13.8 mph - 0.28 in Rain Light Rain
2:32 AM 69.8 °F - 66.2 °F 88% 29.48 in 8.0 mi ENE 15.0 mph - 0.28 in Rain Light Rain
2:51 AM 69.1 °F - 66.9 °F 93% 29.47 in 4.0 mi ENE 12.7 mph - 0.29 in Rain Light Rain
3:07 AM 69.8 °F - 66.2 °F 88% 29.48 in 2.0 mi SE 6.9 mph - 0.05 in Rain Heavy Rain
3:25 AM 69.8 °F - 66.2 °F 88% 29.45 in 8.0 mi East 12.7 mph - 0.13 in   Overcast
3:51 AM 70.0 °F - 64.9 °F 84% 29.43 in 10.0 mi ESE 12.7 mph - 0.13 in   Overcast
4:51 AM 71.1 °F - 66.0 °F 84% 29.37 in 10.0 mi ESE 12.7 mph 26.5 mph 0.00 in Rain Light Rain
5:51 AM 73.0 °F - 66.9 °F 81% 29.37 in 10.0 mi South 18.4 mph 35.7 mph 0.00 in   Overcast
6:39 AM 73.4 °F - 66.2 °F 78% 29.42 in 10.0 mi South 24.2 mph 36.8 mph N/A   Overcast
6:51 AM 73.0 °F - 66.0 °F 79% 29.42 in 10.0 mi South 19.6 mph 24.2 mph N/A   Overcast
7:51 AM 73.0 °F - 63.0 °F 71% 29.46 in 10.0 mi SSW 12.7 mph 24.2 mph N/A   Overcast
8:15 AM 73.4 °F - 64.4 °F 73% 29.47 in 10.0 mi South 11.5 mph - N/A   Mostly Cloudy
8:51 AM 75.0 °F - 64.0 °F 69% 29.47 in 10.0 mi SW 12.7 mph - N/A   Mostly Cloudy
9:51 AM 77.0 °F - 62.1 °F 60% 29.46 in 10.0 mi WSW 4.6 mph - N/A   Mostly Cloudy
10:51 AM 79.0 °F - 62.1 °F 56% 29.47 in 10.0 mi SW 13.8 mph 19.6 mph N/A   Mostly Cloudy
11:51 AM 79.0 °F - 62.1 °F 56% 29.47 in 10.0 mi SSW 9.2 mph - N/A   Mostly Cloudy
12:51 PM 81.0 °F 82.2 °F 63.0 °F 54% 29.48 in 10.0 mi WSW 6.9 mph - N/A   Mostly Cloudy
1:51 PM 77.0 °F - 66.9 °F 71% 29.47 in 10.0 mi Calm Calm - 0.04 in   Mostly Cloudy
2:29 PM 73.4 °F - 64.4 °F 73% 29.49 in 2.0 mi West 17.3 mph 23.0 mph 0.00 in Rain Heavy Rain
2:33 PM 71.6 °F - 66.2 °F 83% 29.49 in 1.0 mi West 15.0 mph 25.3 mph 0.03 in Rain Heavy Rain
2:42 PM 69.8 °F - 66.2 °F 88% 29.49 in 6.0 mi West 5.8 mph - 0.24 in Rain Light Rain
2:51 PM 72.0 °F - 66.9 °F 84% 29.48 in 10.0 mi WNW 4.6 mph - 0.24 in   Mostly Cloudy
3:51 PM 75.9 °F - 66.9 °F 74% 29.46 in 10.0 mi NW 3.5 mph - N/A   Mostly Cloudy
4:51 PM 78.1 °F - 66.0 °F 66% 29.46 in 10.0 mi Calm Calm - N/A   Mostly Cloudy
5:37 PM 78.8 °F - 64.4 °F 61% 29.47 in 10.0 mi Calm Calm - 0.00 in Thunderstorm Thunderstorm
5:51 PM 73.0 °F - 69.1 °F 87% 29.47 in 1.5 mi ESE 6.9 mph - 0.04 in Rain , Thunderstorm Light Thunderstorms and Rain
6:28 PM 71.6 °F - 68.0 °F 88% 29.46 in 6.0 mi NE 4.6 mph - 0.69 in   Mostly Cloudy
6:51 PM 72.0 °F - 69.1 °F 91% 29.47 in 10.0 mi Calm Calm - 0.69 in   Mostly Cloudy
7:29 PM 73.4 °F - 69.8 °F 88% 29.48 in 10.0 mi Calm Calm - N/A Thunderstorm Thunderstorm
7:51 PM 72.0 °F - 69.1 °F 91% 29.49 in 10.0 mi SE 4.6 mph - N/A Thunderstorm Thunderstorm
7:59 PM 71.6 °F - 69.8 °F 94% 29.49 in 10.0 mi ESE 4.6 mph - N/A   Mostly Cloudy
8:51 PM 71.1 °F - 69.1 °F 93% 29.49 in 10.0 mi ESE 4.6 mph - N/A   Overcast
9:51 PM 70.0 °F - 68.0 °F 93% 29.49 in 10.0 mi Calm Calm - N/A   Mostly Cloudy
10:42 PM 71.6 °F - 69.8 °F 94% 29.51 in 10.0 mi Calm Calm - N/A   Mostly Cloudy
10:51 PM 71.1 °F - 69.1 °F 93% 29.51 in 10.0 mi Calm Calm - N/A   Mostly Cloudy
11:51 PM 71.1 °F - 69.1 °F 93% 29.49 in 10.0 mi Calm Calm - 0.00 in Rain Light Rain